loading
|

SL-8 DEB, 1477

Orbit data source: Space-Track

SL-8 DEB, 1477 is space debris in LEO originally from a launch on Mon, 15 Mar 1965 UTC launched from the Tyuratam Missile And Space Complex (TTMTR). Debris objects in space refer to the collection of defunct objects orbiting the Earth. Examples of debris include non-operational satellites, rocket bodies, and fragments generated from explosions, collisions, or faulty payload assembly.

Loading next visibility...
Loading greatness...
SL-8 DEB details
Identifier
1477, 1965-020BB
Orbit
LEO
Last TLE update14 hours ago
Origin
Flag of CISRVSN (CIS)
ManufacturerUnknown
Mission statusUnknown
MissionUnknown
Bus & MotorUnknown
MassUnknown
Launch date (UTC)
1965-03-15 (60 years ago)
Launch vehicleUnknown
Launch site
Tyuratam Missile And Space Complex (TTMTR)
Object type
Payload
Rocket body
Debris
Radar Cross SectionMedium (>0.1 m² and <1 m²)

Expand to show TLE details & history

TLE from 14 hours ago
0 SL-8 DEB
1 01477U 65020BB  24261.32778239  .00000165  00000-0  42192-3 0  9991
2 01477  55.4931  13.0342 0589870  17.7815 344.2828 12.98371465795320
Epoch: 2024-09-17T07:52Z
Definitive object data (Epoch: 2024-09-17T07:52:00.398Z)
Latitude-0.00006°
Longitude-101.71152°
Altitude837.444 km
Speed7.642 km/s
True Right ascension00h 52m 08s
True Declination0° 00' 00"
Sunlit
Object was in full shadow at TLE epoch
Predictive object data (real-time)
Latitude-22.95866°
Longitude93.38064°
Altitude1,719.577 km
Speed6.81 km/s
Apparent Right ascension12h 28m 39s
Apparent Declination-68° 23' 28"
Sunlit
Object is in daylight
Predictive observer data (real-time)
Local Sidereal Time14:40:41
Azimuth192.416° SSW
Elevation-21.082°
Doppler factor1
Orbital elements
Apogee1,719.419 km
Perigee817.33 km
Semi-major axis7,646.512 km
Eccentricity0.058987
Inclination55.4931°
RAAN13.0342°
Arg. of periapsis17.7815°
True anomaly342.31272°
Mean anomaly344.2828°
Eccentric anomaly343.3123°
Mean motion3.246 °/min
BSTAR0.00042192
Period110.91 mins
No data available

SL-8 DEB Visibility forecast

Observer location: 39.9160978°, -105.1181434

SL-8 DEB is not visible in the next 10 days
Span
Click to sort rows by Start time (UTC) header in descending order
Start Az.
Max El. time (UTC)
Max El. Az.
Max El.
End time (UTC)
End Az.